St. Thomas, VI

5:01 PM AST on May 23, 2017 (GMT -0400)
King

Weather History for TIST - August, 2013

Change the Weather History Date:

Tuesday, August 6, 2013

  Actual Average Record
Temperature  
Mean Temperature 83 °F 84 °F  
Max Temperature 88 °F 90 °F 97 °F (1994)
Min Temperature 78 °F 78 °F 67 °F (2001)
Degree Days  
Heating Degree Days 0 0  
Month to date heating degree days 0 0  
Since 1 June heating degree days 0 0  
Since 1 July heating degree days 0 0  
Cooling Degree Days 18 19  
Month to date cooling degree days 117 114  
Year to date cooling degree days 3426 3510  
Since 1 June cooling degree days 1230 1258  
Growing Degree Days 33 (Base 50)    
Moisture  
Dew Point 75 °F    
Average Humidity 77    
Maximum Humidity 91    
Minimum Humidity 63    
Precipitation  
Precipitation 0.00 in 0.10 in 4.05 in (1955)
Month to date precipitation 1.25 0.61  
Year to date precipitation 18.80 17.02  
Sea Level Pressure  
Sea Level Pressure 29.96 in    
Wind  
Wind Speed 9 mph (ESE)    
Max Wind Speed 18 mph    
Max Gust Speed 23 mph    
Visibility 10 miles    
Events      
T = Trace of Precipitation, MM = Missing Value Source: NWS Daily Summary

Daily Weather History Graph

Daily Weather History Graph

Search for Another Location

Airport or City:

Trip Planner

Search our weather history database for the weather conditions in past years. The results will help you decide how hot, cold, wet, or windy it might be!

Date:

Astronomy

Aug. 06, 2013 Rise Set
Actual Time 5:59 AM AST 6:51 PM AST
Civil Twilight 5:36 AM AST 7:14 PM AST
Nautical Twilight 5:09 AM AST 7:41 PM AST
Astronomical Twilight 4:41 AM AST 8:09 PM AST
Moon 5:39 AM AST (8/6) 6:35 PM AST (8/6)
Length of Visible Light 13h 38m
Length of Day
12h 52m
Waning Crescent, 0% of the Moon is Illuminated
Aug 6
Waning Crescent
Aug 6
New
Aug 14
First Quarter
Aug 20
Full
Aug 28
Last Quarter

Hourly Weather History & Observations

Time (AST) Temp. Heat Index Dew Point Humidity Pressure Visibility Wind Dir Wind Speed Gust Speed Precip Events Conditions
12:53 AM 79.0 °F - 75.0 °F 88% 29.97 in 10.0 mi East 5.8 mph - N/A   Clear
1:53 AM 78.1 °F - 75.0 °F 90% 29.96 in 10.0 mi Calm Calm - N/A   Clear
2:53 AM 78.1 °F - 75.0 °F 90% 29.95 in 10.0 mi East 4.6 mph - N/A   Clear
3:53 AM 78.1 °F - 73.9 °F 87% 29.94 in 10.0 mi East 6.9 mph - N/A   Scattered Clouds
4:53 AM 79.0 °F - 75.0 °F 88% 29.95 in 10.0 mi East 8.1 mph - N/A   Clear
5:53 AM 78.1 °F - 75.0 °F 90% 29.95 in 10.0 mi ESE 6.9 mph - N/A   Clear
6:53 AM 80.1 °F 85.1 °F 75.0 °F 85% 29.97 in 10.0 mi East 6.9 mph - N/A   Clear
7:53 AM 82.9 °F 90.2 °F 75.0 °F 77% 29.98 in 10.0 mi ESE 8.1 mph - N/A   Clear
8:53 AM 84.9 °F 94.1 °F 75.9 °F 74% 29.98 in 10.0 mi SE 8.1 mph - N/A   Partly Cloudy
9:53 AM 86.0 °F 95.1 °F 75.0 °F 70% 29.99 in 10.0 mi SE 12.7 mph - N/A   Scattered Clouds
10:53 AM 86.0 °F 95.1 °F 75.0 °F 70% 29.99 in 10.0 mi SSE 15.0 mph - N/A   Clear
11:53 AM 87.1 °F 96.3 °F 75.0 °F 67% 29.98 in 10.0 mi SE 16.1 mph - N/A   Clear
1:53 PM 87.1 °F 97.3 °F 75.9 °F 69% 29.95 in 10.0 mi SSE 15.0 mph - N/A   Partly Cloudy
2:53 PM 87.1 °F 95.4 °F 73.9 °F 65% 29.92 in 10.0 mi SE 16.1 mph - N/A   Clear
3:53 PM 86.0 °F 95.1 °F 75.0 °F 70% 29.93 in 10.0 mi SSE 13.8 mph - N/A   Clear
4:53 PM 86.0 °F 95.1 °F 75.0 °F 70% 29.92 in 10.0 mi SSE 12.7 mph - N/A   Partly Cloudy
5:53 PM 84.9 °F 93.3 °F 75.0 °F 72% 29.93 in 10.0 mi SE 9.2 mph - N/A   Scattered Clouds
6:53 PM 82.9 °F 89.4 °F 73.9 °F 74% 29.94 in 10.0 mi ESE 10.4 mph - N/A   Partly Cloudy
7:53 PM 82.0 °F 87.9 °F 73.9 °F 76% 29.96 in 10.0 mi East 8.1 mph - N/A   Clear
8:53 PM 82.0 °F 88.6 °F 75.0 °F 79% 29.98 in 10.0 mi East 8.1 mph - N/A   Clear
9:53 PM 82.0 °F 88.6 °F 75.0 °F 79% 29.99 in 10.0 mi East 6.9 mph - N/A   Clear
10:53 PM 82.9 °F 90.8 °F 75.9 °F 79% 29.99 in 10.0 mi East 5.8 mph - N/A   Mostly Cloudy
11:53 PM 82.0 °F 89.4 °F 75.9 °F 82% 29.98 in 10.0 mi East 4.6 mph - N/A   Clear